This demonstration page uses our WeatherBlox Daily Observations layout. Learn more.

Left ArrowRight Arrow

34.16533, -84.80231

Hourly Observations for August 2, 2020

Temp ( °F °C ) Dew Point ( °F °C ) Humidity (%) Winds ( mph kmh ) Pressure ( in mb ) Visibility ( mi km ) Precip ( " mm )
12:53 am 00:53 Clear 75 23.9 68 20 79 79 Calm 29.94 1014 10 16 0.00 0.00
1:53 am 01:53 Mostly Cloudy 73 22.8 68 20 84 84 Calm 29.94 1014 10 16 0.00 0.00
2:53 am 02:53 Cloudy 74 23.3 68 20 82 82 Calm 29.93 1014 10 16 0.00 0.00
3:53 am 03:53 Cloudy 74 23.3 68 20 82 82 Calm 29.93 1014 10 16 0.00 0.00
4:53 am 04:53 Cloudy 74 23.3 68 20 82 82 Calm 29.93 1014 10 16 0.00 0.00
5:53 am 05:53 Partly Cloudy 72 22.2 68 20 87 87 Calm 29.94 1014 10 16 0.00 0.00
6:53 am 06:53 Mostly Sunny 71 21.7 67 19.4 87 87 Calm 29.96 1015 8 13 0.00 0.00
7:53 am 07:53 Sunny 74 23.3 69 20.6 85 85 Calm 29.97 1015 10 16 0.00 0.00
8:53 am 08:53 Sunny 76 24.4 69 20.6 79 79 Calm 29.98 1015 10 16 0.00 0.00
9:53 am 09:53 Sunny 82 27.8 68 20 63 63 N 3 6 29.98 1015 10 16 0.00 0.00
10:53 am 10:53 Mostly Sunny 84 28.9 69 20.6 61 61 VRB 3 6 29.99 1016 10 16 0.00 0.00
11:53 am 11:53 Mostly Cloudy 85 29.4 69 20.6 59 59 Calm 30.00 1016 10 16 0.00 0.00
12:53 pm 12:53 Partly Cloudy 87 30.6 67 19.4 51 51 VRB 5 7 29.98 1015 10 16 0.00 0.00
1:53 pm 13:53 Partly Cloudy 87 30.6 68 20 53 53 VRB 3 6 29.98 1015 10 16 0.00 0.00
2:53 pm 14:53 Sunny 92 33.3 67 19.4 44 44 VRB 3 6 29.96 1014 10 16 0.00 0.00
3:53 pm 15:53 Mostly Sunny 91 32.8 68 20 47 47 VRB 6 9 29.94 1014 10 16 0.00 0.00
4:53 pm 16:53 Partly Cloudy 92 33.3 67 19.4 44 44 VRB 6 9 29.92 1013 10 16 0.00 0.00
5:53 pm 17:53 Sunny 91 32.8 66 18.9 44 44 Calm 29.91 1013 10 16 0.00 0.00
6:53 pm 18:53 Mostly Sunny 90 32.2 67 19.4 47 47 N 5 7 29.92 1013 10 16 0.00 0.00
7:53 pm 19:53 Sunny 87 30.6 68 20 53 53 Calm 29.92 1013 10 16 0.00 0.00
8:53 pm 20:53 Clear 84 28.9 67 19.4 57 57 Calm 29.93 1014 10 16 0.00 0.00
9:53 pm 21:53 Clear 80 26.7 67 19.4 64 64 Calm 29.94 1014 10 16 0.00 0.00
10:53 pm 22:53 Clear 76 24.4 67 19.4 74 74 Calm 29.96 1014 10 16 0.00 0.00
11:53 pm 23:53 Clear 75 23.9 67 19.4 76 76 Calm 29.96 1014 10 16 0.00 0.00

Powered by AerisWeather